CCA8665 ZBAD-ZYCC

Flight info

Callsign CCA8665
Flight time N/A
Altitude 37100
Route DOTRA6K DOTRA B334 TGO G341 BUTET BUTET4A
Aircraft B77W/H-SDE1E2E3FGHIJ2J3J4J5M1RWXY/LB1D1

Departure

Time N/A
Airport Beijing Daxing International Airport (ZBAD)

Arrival

Time 2026-04-26 10:03
Airport Changchun Longjia International Airport (ZYCC)
Time Latitude Longitude Altitude Speed Heading
2026-04-26 10:03 43.99106 125.67951 720 ft 7 kts 170°
2026-04-26 10:03 43.99091 125.67992 720 ft 6 kts 73°
2026-04-26 10:03 43.99118 125.68056 720 ft 8 kts 49°
2026-04-26 10:03 43.99162 125.68124 720 ft 10 kts 49°
2026-04-26 10:04 43.99213 125.68209 720 ft 12 kts 50°
2026-04-26 10:04 43.99273 125.68306 720 ft 14 kts 50°
2026-04-26 10:04 43.99341 125.68416 720 ft 15 kts 49°
2026-04-26 10:04 43.99414 125.68534 720 ft 17 kts 49°
2026-04-26 10:05 43.99495 125.68662 720 ft 18 kts 50°
2026-04-26 10:05 43.99578 125.68796 720 ft 17 kts 50°
2026-04-26 10:05 43.99648 125.68909 720 ft 15 kts 49°
2026-04-26 10:05 43.99716 125.69018 720 ft 14 kts 49°
2026-04-26 10:06 43.99782 125.69123 720 ft 14 kts 49°
2026-04-26 10:06 43.99845 125.69224 720 ft 13 kts 49°
2026-04-26 10:06 43.99904 125.69321 720 ft 11 kts 51°
2026-04-26 10:06 43.99943 125.69385 720 ft 8 kts 50°
2026-04-26 10:07 43.99981 125.69447 720 ft 8 kts 49°
2026-04-26 10:07 44.00021 125.69512 720 ft 9 kts 49°
2026-04-26 10:07 44.00063 125.69579 720 ft 9 kts 49°
2026-04-26 10:07 44.00106 125.69648 720 ft 9 kts 49°
2026-04-26 10:08 44.00120 125.69700 720 ft 4 kts 130°
2026-04-26 10:08 44.00090 125.69735 720 ft 6 kts 141°
2026-04-26 10:08 44.00056 125.69775 720 ft 6 kts 141°
2026-04-26 10:08 44.00019 125.69817 720 ft 7 kts 140°
2026-04-26 10:09 43.99981 125.69862 720 ft 7 kts 139°
2026-04-26 10:09 43.99941 125.69910 720 ft 7 kts 139°
2026-04-26 10:09 43.99900 125.69959 720 ft 8 kts 139°
2026-04-26 10:09 43.99857 125.70010 720 ft 8 kts 139°
2026-04-26 10:10 43.99812 125.70063 720 ft 8 kts 140°
2026-04-26 10:10 43.99764 125.70082 720 ft 7 kts 208°
2026-04-26 10:10 43.99723 125.70033 720 ft 7 kts 220°
2026-04-26 10:10 43.99675 125.69993 720 ft 8 kts 207°
2026-04-26 10:11 43.99625 125.69958 720 ft 8 kts 211°
2026-04-26 10:11 43.99584 125.69915 720 ft 8 kts 224°
2026-04-26 10:11 43.99556 125.69874 720 ft 0 kts 228°
2026-04-26 10:11 43.99553 125.69868 720 ft 0 kts 228°